{"data":{"norad_id":41167,"intl_designator":"2015-077B","name":"KENT RIDGE 1","alt_names":[],"object_type":"PAYLOAD","status":"ACTIVE","operator":null,"country":"SING","launch_date":"2015-12-16","launch_site_code":"SRILR","launch_vehicle":null,"mission":null,"orbit_class":"UNKNOWN","rcs_meters":0.1995,"size_class":null,"mass_kg":null,"dimensions":null,"purposes":["earth_obs"],"wikipedia_slug":null,"has_3d_model":false,"image_url":null,"decayed_at":null,"tle_current":{"epoch":"2026-09-20T05:35:41.670816Z","epoch_age_seconds":41407,"freshness":"FRESH","line1":"1 41167U 15077B   26263.23312119  .00002934  00000+0  87874-4 0  9995","line2":"2 41167  14.9798 278.8676 0008181 141.4519 218.6388 15.23617468595611","mean_motion":15.23617468,"eccentricity":0.0008181,"inclination_deg":14.9798,"raan_deg":278.8676,"arg_perigee_deg":141.4519,"mean_anomaly_deg":218.6388,"bstar":8.7874e-5,"rev_number":59561,"period_min":94.511911962406,"perigee_km":489.31718594648,"apogee_km":500.56291461615,"semimajor_km":6873.0770502813,"source":"CELESTRAK","updated_at":"2026-09-20T09:00:33.965655Z"}}}